contact:dominique.lefevre@mio.osupytheas.fr, maurice.libes@osupytheas.fr, didier.mallarino@osupytheas.fr
Project:EMSO http://www.emso-fr.org/EMSO-France
Depth: 2436.0 m
Title:EMSO Ligure Ouest : Data MII capteur AQUADOPP
Date,Latitude,Longitude,X_East,Y_North,Z_Up,Amplitude_X,Amplitude_Y,Amplitude_Z,Batterie,SoundSpeed,Heading,Pitch,Roll,Pressure,TIS,Speed,Direction
, degrees North, degrees East, m.s-1, m.s-1,m.s-1, 1, 1, 1, Volt, m.s-1, degree, degree, degree, dbar, degree_C, m.s-1, degree
2022-06-27T00:04:03,42.805,6.029,0.028,-0.032,-0.026,104.0,103.0,102.0,13.4,1505.2,325.7,-0.7,1.8,2470.971,13.28,0.042,138.8
2022-06-27T00:07:03,42.805,6.029,0.005,-0.009,-0.03,106.0,103.0,103.0,13.4,1505.2,329.6,-0.7,1.8,2470.957,13.28,0.01,150.9
2022-06-27T00:10:03,42.805,6.029,0.024,-0.015,-0.033,106.0,103.0,102.0,13.4,1505.2,328.4,-0.7,1.8,2470.921,13.28,0.028,122.0
2022-06-27T00:13:03,42.805,6.029,0.028,-0.012,-0.021,104.0,103.0,102.0,13.3,1505.2,319.8,-0.7,1.8,2470.89,13.28,0.03,113.2
2022-06-27T00:16:03,42.805,6.029,0.012,0.006,-0.022,105.0,103.0,102.0,13.4,1505.2,326.3,-0.7,1.8,2470.891,13.28,0.013,63.4
2022-06-27T00:19:03,42.805,6.029,0.011,-0.004,0.014,105.0,103.0,102.0,13.4,1505.2,320.1,-0.8,1.8,2470.909,13.29,0.011,110.0
2022-06-27T00:22:03,42.805,6.029,0.031,0.002,0.012,104.0,106.0,101.0,13.4,1505.2,321.2,-0.7,1.8,2470.902,13.29,0.031,86.3
2022-06-27T00:25:03,42.805,6.029,0.002,0.001,-0.006,104.0,103.0,103.0,13.3,1505.2,323.7,-0.8,1.8,2470.882,13.29,0.002,63.4
2022-06-27T00:28:03,42.805,6.029,0.026,-0.006,-0.014,105.0,105.0,102.0,13.4,1505.2,326.9,-0.8,1.8,2470.91,13.29,0.026,103.0
2022-06-27T00:31:03,42.805,6.029,0.018,-0.015,-0.007,104.0,104.0,102.0,13.4,1505.2,330.1,-0.7,1.8,2470.909,13.29,0.023,129.8
2022-06-27T00:34:03,42.805,6.029,0.022,-0.011,-0.019,105.0,105.0,102.0,13.3,1505.2,330.6,-0.7,1.9,2470.866,13.29,0.024,116.6
2022-06-27T00:37:03,42.805,6.029,0.014,0.002,-0.031,105.0,104.0,102.0,13.3,1505.2,333.2,-0.8,1.8,2470.894,13.29,0.014,81.9
2022-06-27T00:40:03,42.805,6.029,-0.007,-0.006,-0.01,105.0,105.0,101.0,13.3,1505.2,322.4,-0.8,1.8,2470.918,13.29,0.009,229.4
2022-06-27T00:43:03,42.805,6.029,0.027,-0.013,-0.026,104.0,104.0,102.0,13.4,1505.2,328.3,-0.8,1.8,2470.904,13.29,0.029,115.7
2022-06-27T00:46:03,42.805,6.029,0.004,0.004,-0.015,105.0,105.0,102.0,13.4,1505.2,331.3,-0.8,1.8,2470.861,13.29,0.005,45.0
2022-06-27T00:49:03,42.805,6.029,0.013,-0.001,-0.001,105.0,105.0,102.0,13.4,1505.2,319.8,-0.8,1.8,2470.889,13.29,0.013,94.4
2022-06-27T00:52:03,42.805,6.029,0.016,-0.009,-0.025,104.0,104.0,102.0,13.4,1505.2,332.4,-0.8,1.8,2470.884,13.29,0.018,119.4
2022-06-27T00:55:03,42.805,6.029,0.0,-0.007,0.003,105.0,104.0,103.0,13.4,1505.2,327.3,-0.8,1.8,2470.9,13.29,0.007,180.0
2022-06-27T00:58:03,42.805,6.029,0.016,-0.023,-0.016,105.0,104.0,103.0,13.4,1505.2,321.4,-0.7,1.8,2470.886,13.29,0.028,145.2
2022-06-27T01:04:03,42.805,6.029,0.007,-0.02,-0.035,106.0,106.0,103.0,13.4,1505.2,329.2,-0.8,1.8,2470.901,13.28,0.021,160.7
2022-06-27T01:07:03,42.805,6.029,0.033,-0.037,-0.032,105.0,103.0,102.0,13.4,1505.2,328.4,-0.8,1.8,2470.927,13.28,0.049,138.3
2022-06-27T01:10:03,42.805,6.029,0.035,-0.031,-0.023,104.0,104.0,103.0,13.3,1505.2,321.1,-0.8,1.8,2470.938,13.28,0.046,131.5
2022-06-27T01:13:03,42.805,6.029,0.012,-0.001,-0.001,104.0,104.0,102.0,13.4,1505.2,332.0,-0.8,1.8,2470.91,13.28,0.012,94.8
2022-06-27T01:16:03,42.805,6.029,0.023,-0.007,-0.004,104.0,105.0,102.0,13.4,1505.2,327.4,-0.8,1.8,2470.917,13.28,0.024,106.9
2022-06-27T01:19:03,42.805,6.029,0.032,-0.025,-0.038,103.0,104.0,103.0,13.4,1505.2,327.7,-0.8,1.8,2470.883,13.29,0.04,128.0
2022-06-27T01:22:03,42.805,6.029,0.024,-0.011,-0.017,106.0,104.0,102.0,13.3,1505.2,334.1,-0.7,1.8,2470.929,13.29,0.026,114.6
2022-06-27T01:25:03,42.805,6.029,0.0,-0.003,-0.033,104.0,104.0,102.0,13.3,1505.2,326.4,-0.7,1.9,2470.924,13.29,0.003,180.0
2022-06-27T01:28:03,42.805,6.029,0.03,-0.002,-0.013,106.0,104.0,103.0,13.4,1505.2,329.5,-0.8,1.8,2470.907,13.29,0.03,93.8
2022-06-27T01:31:03,42.805,6.029,0.01,-0.018,-0.014,104.0,105.0,102.0,13.4,1505.2,333.8,-0.7,1.8,2470.935,13.29,0.02,150.9
2022-06-27T01:34:03,42.805,6.029,0.02,-0.013,-0.007,103.0,104.0,103.0,13.4,1505.2,322.1,-0.8,1.8,2470.916,13.29,0.023,123.0
2022-06-27T01:37:03,42.805,6.029,0.009,-0.003,-0.005,106.0,104.0,102.0,13.4,1505.2,326.9,-0.8,1.8,2470.872,13.29,0.009,108.4
2022-06-27T01:40:03,42.805,6.029,0.033,-0.021,0.0,105.0,103.0,103.0,13.4,1505.2,324.7,-0.8,1.8,2470.884,13.29,0.039,122.5
2022-06-27T01:43:03,42.805,6.029,0.015,-0.011,-0.024,104.0,105.0,102.0,13.3,1505.2,323.6,-0.7,1.8,2470.878,13.29,0.018,126.3
2022-06-27T01:46:03,42.805,6.029,0.034,-0.002,-0.01,105.0,104.0,102.0,13.4,1505.2,321.2,-0.8,1.8,2470.903,13.29,0.034,93.4
2022-06-27T01:49:03,42.805,6.029,0.012,-0.003,-0.007,105.0,104.0,102.0,13.4,1505.2,329.6,-0.8,1.8,2470.868,13.29,0.012,104.0
2022-06-27T01:52:03,42.805,6.029,0.004,-0.009,-0.007,104.0,105.0,103.0,13.4,1505.2,323.6,-0.8,1.8,2470.89,13.29,0.009,156.0
2022-06-27T01:55:03,42.805,6.029,0.003,-0.002,-0.016,104.0,104.0,103.0,13.4,1505.2,329.7,-0.7,1.8,2470.918,13.29,0.003,123.7
2022-06-27T01:58:03,42.805,6.029,0.029,0.006,0.006,103.0,102.0,103.0,13.4,1505.2,327.0,-0.7,1.8,2470.904,13.29,0.029,78.3
2022-06-27T02:04:03,42.805,6.029,0.0,0.008,0.003,104.0,105.0,103.0,13.4,1505.2,328.5,-0.8,1.8,2470.903,13.28,0.008,0.0
2022-06-27T02:07:03,42.805,6.029,0.009,-0.009,-0.022,107.0,104.0,102.0,13.4,1505.2,323.1,-0.7,1.8,2470.907,13.28,0.012,135.0
2022-06-27T02:10:03,42.805,6.029,0.004,-0.009,-0.015,106.0,105.0,102.0,13.4,1505.2,321.8,-0.8,1.8,2470.919,13.28,0.009,156.0
2022-06-27T02:13:03,42.805,6.029,0.023,-0.024,-0.006,106.0,104.0,102.0,13.3,1505.2,330.4,-0.8,1.9,2470.917,13.29,0.033,136.2
2022-06-27T02:16:03,42.805,6.029,-0.005,-0.002,0.0,104.0,106.0,103.0,13.4,1505.2,330.6,-0.8,1.8,2470.964,13.29,0.005,248.2
2022-06-27T02:19:03,42.805,6.029,0.007,-0.011,-0.023,106.0,105.0,102.0,13.4,1505.2,324.8,-0.8,1.8,2470.918,13.29,0.013,147.5
2022-06-27T02:22:03,42.805,6.029,0.019,-0.013,-0.019,105.0,104.0,103.0,13.4,1505.2,330.0,-0.8,1.8,2470.898,13.29,0.023,124.4
2022-06-27T02:25:03,42.805,6.029,0.023,-0.015,-0.012,104.0,105.0,102.0,13.3,1505.2,328.4,-0.7,1.8,2470.903,13.29,0.027,123.1
2022-06-27T02:28:03,42.805,6.029,-0.004,-0.002,-0.013,105.0,103.0,103.0,13.4,1505.2,329.6,-0.8,1.8,2470.941,13.29,0.004,243.4
2022-06-27T02:31:03,42.805,6.029,0.003,-0.002,-0.016,105.0,103.0,102.0,13.4,1505.2,320.8,-0.7,1.8,2470.899,13.29,0.003,123.7
2022-06-27T02:34:03,42.805,6.029,0.016,-0.011,-0.021,105.0,104.0,101.0,13.4,1505.2,323.4,-0.8,1.9,2470.918,13.29,0.019,124.5
2022-06-27T02:37:03,42.805,6.029,0.019,0.0,-0.044,104.0,106.0,102.0,13.4,1505.2,329.5,-0.8,1.9,2470.892,13.29,0.019,90.0
2022-06-27T02:40:03,42.805,6.029,0.014,-0.033,0.003,105.0,105.0,102.0,13.4,1505.2,324.2,-0.8,1.8,2470.931,13.29,0.035,157.0
2022-06-27T02:43:03,42.805,6.029,0.02,-0.015,-0.018,104.0,107.0,102.0,13.3,1505.2,333.4,-0.8,1.8,2470.892,13.29,0.025,126.9
2022-06-27T02:46:03,42.805,6.029,0.005,-0.011,0.0,106.0,103.0,102.0,13.3,1505.2,331.5,-0.7,1.8,2470.92,13.29,0.012,155.6
2022-06-27T02:49:03,42.805,6.029,0.002,0.0,0.001,104.0,106.0,103.0,13.4,1505.2,327.0,-0.8,1.8,2470.936,13.29,0.002,90.0
2022-06-27T02:52:03,42.805,6.029,0.024,-0.023,-0.016,106.0,105.0,103.0,13.4,1505.2,328.4,-0.8,1.8,2470.924,13.29,0.033,133.8
2022-06-27T02:55:03,42.805,6.029,-0.004,-0.001,-0.006,102.0,104.0,103.0,13.4,1505.2,332.5,-0.8,1.8,2470.906,13.29,0.004,256.0
2022-06-27T02:58:03,42.805,6.029,0.005,0.001,-0.004,106.0,106.0,101.0,13.3,1505.2,324.5,-0.8,1.8,2470.874,13.29,0.005,78.7
2022-06-27T03:01:03,42.805,6.029,-0.001,0.02,-0.013,105.0,105.0,103.0,13.4,1505.2,333.6,-0.8,1.8,2470.917,13.29,0.02,357.1
2022-06-27T03:04:03,42.805,6.029,-0.01,0.004,-0.025,104.0,104.0,102.0,13.4,1505.2,329.7,-0.8,1.8,2470.907,13.29,0.01,291.8
2022-06-27T03:07:03,42.805,6.029,0.0,0.0,-0.014,107.0,105.0,102.0,13.4,1505.2,323.4,-0.8,1.8,2470.895,13.29,0.0,0.0
2022-06-27T03:10:03,42.805,6.029,-0.004,0.011,0.001,106.0,104.0,103.0,13.4,1505.2,324.4,-0.8,1.8,2470.903,13.29,0.011,340.0
2022-06-27T03:13:03,42.805,6.029,-0.018,-0.001,-0.013,106.0,102.0,102.0,13.4,1505.2,323.4,-0.8,1.8,2470.911,13.29,0.018,266.8
2022-06-27T03:16:03,42.805,6.029,0.016,-0.01,0.005,106.0,102.0,103.0,13.4,1505.2,329.0,-0.8,1.8,2470.905,13.29,0.018,122.0
2022-06-27T03:19:03,42.805,6.029,0.019,0.016,-0.003,106.0,103.0,102.0,13.4,1505.2,329.8,-0.7,1.8,2470.874,13.29,0.024,49.9
2022-06-27T03:22:03,42.805,6.029,0.014,-0.005,-0.007,103.0,105.0,103.0,13.4,1505.2,332.4,-0.8,1.8,2470.921,13.29,0.014,109.6
2022-06-27T03:25:03,42.805,6.029,0.01,0.0,-0.042,105.0,105.0,103.0,13.3,1505.2,324.0,-0.8,1.8,2470.925,13.29,0.01,90.0
2022-06-27T03:28:03,42.805,6.029,-0.001,-0.004,-0.014,105.0,105.0,102.0,13.3,1505.2,330.1,-0.8,1.8,2470.938,13.29,0.004,194.0
2022-06-27T03:31:03,42.805,6.029,0.009,0.02,0.006,105.0,105.0,102.0,13.4,1505.2,333.8,-0.8,1.8,2470.924,13.29,0.021,24.2
2022-06-27T03:34:03,42.805,6.029,0.003,-0.003,0.003,105.0,105.0,102.0,13.4,1505.2,330.8,-0.8,1.8,2470.969,13.29,0.004,135.0
2022-06-27T03:37:03,42.805,6.029,0.013,-0.001,-0.006,104.0,104.0,103.0,13.3,1505.2,333.6,-0.7,1.8,2470.949,13.29,0.013,94.4
2022-06-27T03:40:03,42.805,6.029,0.021,0.008,0.01,105.0,105.0,102.0,13.4,1505.2,325.7,-0.8,1.8,2470.955,13.29,0.022,69.1
2022-06-27T03:43:03,42.805,6.029,0.004,-0.015,-0.01,105.0,105.0,102.0,13.4,1505.2,322.2,-0.8,1.8,2470.93,13.29,0.015,165.1
2022-06-27T03:46:03,42.805,6.029,-0.019,0.011,-0.033,105.0,104.0,102.0,13.4,1505.2,323.5,-0.7,1.8,2470.943,13.29,0.021,300.1
2022-06-27T03:49:03,42.805,6.029,0.005,-0.011,-0.021,106.0,104.0,102.0,13.4,1505.2,324.5,-0.8,1.8,2470.933,13.29,0.012,155.6
2022-06-27T03:52:03,42.805,6.029,-0.004,-0.01,-0.03,105.0,104.0,102.0,13.4,1505.2,329.5,-0.8,1.8,2470.921,13.29,0.01,201.8
2022-06-27T03:55:03,42.805,6.029,-0.005,0.003,-0.005,105.0,103.0,103.0,13.4,1505.2,328.8,-0.8,1.8,2470.923,13.29,0.005,301.0
2022-06-27T03:58:03,42.805,6.029,0.026,0.01,-0.027,105.0,105.0,101.0,13.4,1505.2,323.7,-0.8,1.8,2470.929,13.29,0.027,69.0
2022-06-27T04:04:03,42.805,6.029,0.011,0.001,0.008,104.0,107.0,102.0,13.3,1505.2,325.6,-0.7,1.8,2470.979,13.29,0.011,84.8
2022-06-27T04:07:03,42.805,6.029,0.004,0.012,-0.025,105.0,109.0,104.0,13.4,1505.2,325.0,-0.8,1.8,2470.975,13.29,0.012,18.4
2022-06-27T04:10:03,42.805,6.029,0.025,0.01,-0.004,105.0,107.0,103.0,13.4,1505.2,332.0,-0.8,1.8,2471.005,13.29,0.026,68.2
2022-06-27T04:13:03,42.805,6.029,0.001,-0.016,-0.022,105.0,104.0,102.0,13.4,1505.2,332.9,-0.7,1.8,2470.986,13.29,0.016,176.4
2022-06-27T04:16:03,42.805,6.029,0.004,0.012,-0.013,105.0,104.0,103.0,13.4,1505.2,323.2,-0.7,1.8,2470.952,13.29,0.012,18.4
2022-06-27T04:19:03,42.805,6.029,0.021,-0.014,-0.018,105.0,105.0,102.0,13.4,1505.2,330.0,-0.8,1.8,2470.951,13.29,0.025,123.7
2022-06-27T04:22:03,42.805,6.029,0.009,0.006,-0.013,104.0,104.0,102.0,13.4,1505.2,323.0,-0.8,1.8,2470.905,13.29,0.01,56.3
2022-06-27T04:25:03,42.805,6.029,0.024,0.001,-0.007,105.0,103.0,103.0,13.4,1505.2,323.3,-0.8,1.8,2470.971,13.29,0.024,87.6
2022-06-27T04:28:03,42.805,6.029,0.013,-0.02,0.022,104.0,107.0,100.0,13.4,1505.2,333.4,-0.8,1.8,2470.936,13.29,0.023,147.0
2022-06-27T04:31:03,42.805,6.029,0.003,0.006,-0.032,106.0,106.0,102.0,13.3,1505.2,319.8,-0.7,1.8,2470.964,13.29,0.006,26.6
2022-06-27T04:34:03,42.805,6.029,0.012,-0.003,-0.019,105.0,103.0,102.0,13.3,1505.2,330.4,-0.7,1.8,2470.977,13.29,0.012,104.0
2022-06-27T04:37:03,42.805,6.029,0.012,0.0,0.004,104.0,104.0,102.0,13.3,1505.2,324.1,-0.8,1.8,2470.949,13.29,0.012,90.0
2022-06-27T04:40:03,42.805,6.029,0.013,-0.013,-0.036,104.0,104.0,103.0,13.4,1505.2,322.3,-0.8,1.8,2470.934,13.29,0.018,135.0
2022-06-27T04:43:03,42.805,6.029,0.004,0.028,-0.018,103.0,104.0,103.0,13.3,1505.2,329.3,-0.8,1.8,2470.986,13.29,0.028,8.1
2022-06-27T04:46:03,42.805,6.029,0.012,-0.002,0.005,104.0,103.0,102.0,13.4,1505.2,320.5,-0.8,1.8,2470.955,13.29,0.012,99.5
2022-06-27T04:49:03,42.805,6.029,0.02,-0.003,-0.024,104.0,103.0,102.0,13.3,1505.2,321.4,-0.8,1.8,2470.954,13.29,0.02,98.5
2022-06-27T04:52:03,42.805,6.029,0.02,-0.003,-0.013,103.0,104.0,102.0,13.4,1505.2,322.4,-0.8,1.8,2470.942,13.29,0.02,98.5
2022-06-27T04:55:03,42.805,6.029,-0.001,0.032,0.014,104.0,103.0,102.0,13.3,1505.2,321.4,-0.8,1.8,2470.967,13.29,0.032,358.2
2022-06-27T04:58:03,42.805,6.029,0.016,0.006,0.007,104.0,104.0,103.0,13.4,1505.2,321.1,-0.7,1.8,2470.94,13.29,0.017,69.4
2022-06-27T05:04:03,42.805,6.029,0.016,-0.002,0.0,103.0,104.0,101.0,13.4,1505.2,321.4,-0.8,1.8,2470.991,13.28,0.016,97.1
2022-06-27T05:07:03,42.805,6.029,0.009,0.014,0.008,104.0,104.0,101.0,13.4,1505.2,321.1,-0.7,1.8,2470.991,13.28,0.016,32.7
2022-06-27T05:10:03,42.805,6.029,0.005,0.012,-0.016,103.0,102.0,101.0,13.4,1505.2,322.6,-0.8,1.8,2471.013,13.28,0.013,22.6
2022-06-27T05:13:03,42.805,6.029,0.012,0.006,0.007,104.0,103.0,102.0,13.4,1505.2,320.8,-0.8,1.8,2471.012,13.29,0.013,63.4
2022-06-27T05:16:03,42.805,6.029,0.026,0.016,-0.027,105.0,103.0,102.0,13.4,1505.2,324.1,-0.7,1.8,2470.994,13.29,0.03,58.4
2022-06-27T05:19:03,42.805,6.029,0.0,0.019,0.014,104.0,104.0,102.0,13.4,1505.2,325.4,-0.8,1.8,2470.977,13.29,0.019,0.0
2022-06-27T05:22:03,42.805,6.029,-0.008,0.001,-0.005,104.0,103.0,102.0,13.4,1505.2,324.1,-0.8,1.8,2470.96,13.29,0.008,277.1
2022-06-27T05:25:03,42.805,6.029,0.02,-0.017,-0.028,102.0,104.0,102.0,13.4,1505.2,327.8,-0.8,1.8,2471.006,13.29,0.026,130.4
2022-06-27T05:28:03,42.805,6.029,0.013,-0.01,-0.037,105.0,102.0,101.0,13.3,1505.2,324.2,-0.7,1.8,2470.97,13.29,0.016,127.6
2022-06-27T05:31:03,42.805,6.029,0.02,0.0,0.001,103.0,102.0,101.0,13.4,1505.2,331.3,-0.7,1.8,2470.983,13.29,0.02,90.0
2022-06-27T05:34:03,42.805,6.029,0.011,-0.002,0.009,105.0,103.0,102.0,13.3,1505.2,333.2,-0.8,1.8,2470.997,13.29,0.011,100.3
2022-06-27T05:37:03,42.805,6.029,0.018,0.028,0.01,104.0,102.0,102.0,13.4,1505.2,329.3,-0.8,1.8,2471.01,13.29,0.033,32.7
2022-06-27T05:40:03,42.805,6.029,0.021,0.0,-0.009,105.0,104.0,103.0,13.4,1505.2,322.6,-0.8,1.8,2470.993,13.29,0.021,90.0
2022-06-27T05:43:03,42.805,6.029,0.019,0.004,0.011,104.0,104.0,101.0,13.3,1505.2,324.1,-0.8,1.8,2470.957,13.29,0.019,78.1
2022-06-27T05:46:03,42.805,6.029,0.003,0.007,0.034,104.0,103.0,101.0,13.4,1505.2,326.3,-0.7,1.9,2470.97,13.29,0.007,23.2
2022-06-27T05:49:03,42.805,6.029,0.019,0.0,-0.02,104.0,104.0,103.0,13.4,1505.2,327.8,-0.7,1.8,2470.978,13.29,0.019,90.0
2022-06-27T05:52:03,42.805,6.029,0.005,-0.003,-0.018,104.0,104.0,102.0,13.3,1505.2,331.5,-0.8,1.8,2470.988,13.29,0.005,121.0
2022-06-27T05:55:03,42.805,6.029,0.017,0.011,-0.029,105.0,103.0,102.0,13.4,1505.2,319.6,-0.8,1.8,2470.994,13.29,0.02,57.1
2022-06-27T05:58:03,42.805,6.029,0.012,0.001,-0.025,104.0,103.0,102.0,13.4,1505.2,320.5,-0.8,1.8,2470.99,13.29,0.012,85.2
2022-06-27T06:04:03,42.805,6.029,0.023,0.006,0.019,105.0,103.0,102.0,13.3,1505.2,326.6,-0.8,1.8,2470.976,13.28,0.023,75.4
2022-06-27T06:07:03,42.805,6.029,0.025,-0.002,-0.035,103.0,104.0,103.0,13.4,1505.2,322.5,-0.7,1.8,2471.011,13.28,0.025,94.6
2022-06-27T06:10:03,42.805,6.029,0.009,0.014,-0.011,104.0,104.0,101.0,13.3,1505.2,325.2,-0.8,1.8,2471.033,13.28,0.016,32.7
2022-06-27T06:13:03,42.805,6.029,0.032,0.008,-0.008,104.0,105.0,102.0,13.3,1505.2,333.2,-0.8,1.8,2470.987,13.28,0.032,76.0
2022-06-27T06:16:03,42.805,6.029,0.015,0.006,0.012,103.0,103.0,102.0,13.3,1505.2,329.2,-0.8,1.8,2471.035,13.29,0.016,68.2
2022-06-27T06:19:03,42.805,6.029,0.018,-0.008,-0.014,104.0,103.0,101.0,13.4,1505.2,326.4,-0.8,1.8,2471.019,13.29,0.019,114.0
2022-06-27T06:22:03,42.805,6.029,0.014,0.001,-0.026,103.0,104.0,103.0,13.4,1505.2,323.0,-0.8,1.8,2471.004,13.29,0.014,85.9
2022-06-27T06:25:03,42.805,6.029,0.016,-0.009,-0.011,104.0,103.0,102.0,13.4,1505.2,326.8,-0.7,1.8,2471.016,13.29,0.018,119.4
2022-06-27T06:28:03,42.805,6.029,0.017,0.011,0.001,104.0,105.0,103.0,13.4,1505.2,322.2,-0.8,1.8,2471.004,13.29,0.02,57.1
2022-06-27T06:31:03,42.805,6.029,0.024,-0.009,-0.008,103.0,104.0,102.0,13.4,1505.2,325.0,-0.8,1.8,2470.99,13.29,0.025,110.6
2022-06-27T06:34:03,42.805,6.029,0.032,-0.002,-0.007,103.0,104.0,101.0,13.3,1505.2,324.5,-0.8,1.9,2470.985,13.29,0.032,93.6
2022-06-27T06:37:03,42.805,6.029,0.037,0.006,0.012,103.0,105.0,101.0,13.4,1505.2,327.6,-0.7,1.8,2471.013,13.29,0.037,80.8
2022-06-27T06:40:03,42.805,6.029,0.017,0.0,0.017,103.0,103.0,101.0,13.3,1505.2,328.3,-0.7,1.8,2470.973,13.29,0.017,90.0
2022-06-27T06:43:03,42.805,6.029,0.025,0.006,-0.002,104.0,105.0,101.0,13.4,1505.2,325.1,-0.8,1.8,2470.987,13.29,0.025,76.5
2022-06-27T06:46:03,42.805,6.029,0.023,0.006,0.005,103.0,104.0,102.0,13.4,1505.2,326.5,-0.7,1.8,2471.01,13.29,0.023,75.4
2022-06-27T06:49:03,42.805,6.029,0.001,-0.001,-0.022,105.0,104.0,102.0,13.4,1505.2,328.8,-0.7,1.8,2470.98,13.29,0.001,135.0
2022-06-27T06:52:03,42.805,6.029,0.01,-0.001,-0.005,103.0,104.0,103.0,13.3,1505.2,320.5,-0.8,1.8,2470.96,13.29,0.01,95.7
2022-06-27T06:55:03,42.805,6.029,0.013,0.018,0.005,104.0,104.0,102.0,13.4,1505.2,325.0,-0.7,1.8,2470.988,13.29,0.022,35.8
2022-06-27T06:58:03,42.805,6.029,0.018,0.008,0.0,104.0,104.0,101.0,13.3,1505.2,323.7,-0.8,1.8,2470.948,13.29,0.019,66.0
2022-06-27T07:04:03,42.805,6.029,0.003,0.0,0.008,104.0,102.0,102.0,13.4,1505.2,325.5,-0.8,1.8,2470.983,13.28,0.003,90.0
2022-06-27T07:07:03,42.805,6.029,0.0,0.006,-0.023,103.0,104.0,103.0,13.3,1505.2,326.9,-0.8,1.8,2470.996,13.28,0.006,0.0
2022-06-27T07:10:03,42.805,6.029,0.031,-0.005,-0.013,104.0,102.0,102.0,13.4,1505.2,324.0,-0.8,1.8,2470.981,13.28,0.031,99.2
2022-06-27T07:13:03,42.805,6.029,0.043,-0.004,-0.022,103.0,102.0,102.0,13.4,1505.2,327.7,-0.7,1.8,2470.987,13.28,0.043,95.3
2022-06-27T07:16:03,42.805,6.029,0.023,-0.007,-0.019,104.0,103.0,101.0,13.4,1505.2,326.1,-0.7,1.8,2471.028,13.28,0.024,106.9
2022-06-27T07:19:03,42.805,6.029,0.017,-0.017,-0.005,102.0,103.0,102.0,13.3,1505.2,333.1,-0.8,1.9,2470.963,13.29,0.024,135.0
2022-06-27T07:22:03,42.805,6.029,0.021,0.007,-0.015,104.0,103.0,102.0,13.4,1505.2,330.5,-0.8,1.8,2470.957,13.29,0.022,71.6
2022-06-27T07:25:03,42.805,6.029,0.01,-0.01,-0.007,105.0,103.0,102.0,13.4,1505.2,322.4,-0.8,1.8,2470.955,13.29,0.014,135.0
2022-06-27T07:28:03,42.805,6.029,0.0,-0.006,-0.013,106.0,104.0,101.0,13.4,1505.2,323.4,-0.8,1.8,2470.952,13.29,0.006,180.0
2022-06-27T07:31:03,42.805,6.029,0.009,0.009,-0.005,104.0,103.0,102.0,13.3,1505.2,319.7,-0.7,1.8,2470.925,13.29,0.012,45.0
2022-06-27T07:34:03,42.805,6.029,0.014,0.006,0.0,104.0,104.0,104.0,13.4,1505.2,328.9,-0.8,1.8,2470.937,13.29,0.015,66.8
2022-06-27T07:37:03,42.805,6.029,0.016,-0.002,-0.049,105.0,105.0,101.0,13.4,1505.2,329.0,-0.7,1.8,2470.959,13.29,0.016,97.1
2022-06-27T07:40:03,42.805,6.029,0.018,-0.002,0.01,104.0,103.0,103.0,13.3,1505.2,321.0,-0.8,1.8,2470.949,13.29,0.018,96.3
2022-06-27T07:43:03,42.805,6.029,0.009,-0.001,-0.026,105.0,104.0,102.0,13.3,1505.2,326.1,-0.7,1.8,2470.938,13.29,0.009,96.3
2022-06-27T07:46:03,42.805,6.029,0.024,-0.025,-0.005,104.0,103.0,102.0,13.4,1505.2,327.0,-0.8,1.8,2470.948,13.29,0.034,136.2
2022-06-27T07:49:03,42.805,6.029,0.02,-0.011,-0.031,103.0,104.0,102.0,13.4,1505.2,321.1,-0.8,1.8,2470.957,13.29,0.022,118.8
2022-06-27T07:52:03,42.805,6.029,0.039,-0.004,-0.002,103.0,105.0,102.0,13.4,1505.2,333.6,-0.8,1.8,2470.934,13.29,0.039,95.9
2022-06-27T07:55:03,42.805,6.029,0.029,-0.005,-0.01,104.0,104.0,102.0,13.4,1505.2,327.0,-0.8,1.8,2470.955,13.29,0.029,99.8
2022-06-27T07:58:03,42.805,6.029,0.041,-0.005,0.003,104.0,103.0,102.0,13.3,1505.2,331.5,-0.7,1.8,2470.963,13.29,0.041,97.0
2022-06-27T08:04:03,42.805,6.029,0.012,-0.005,-0.016,104.0,104.0,102.0,13.4,1505.2,324.2,-0.8,1.8,2470.96,13.28,0.013,112.6
2022-06-27T08:07:03,42.805,6.029,0.013,-0.006,-0.031,103.0,105.0,102.0,13.3,1505.2,325.4,-0.8,1.8,2470.971,13.28,0.014,114.8
2022-06-27T08:10:03,42.805,6.029,0.023,-0.008,-0.016,105.0,103.0,100.0,13.4,1505.2,321.1,-0.8,1.8,2470.967,13.28,0.024,109.2
2022-06-27T08:13:03,42.805,6.029,0.049,-0.009,-0.015,103.0,104.0,101.0,13.4,1505.2,330.2,-0.8,1.8,2470.964,13.28,0.049,100.4
2022-06-27T08:16:03,42.805,6.029,0.017,0.003,0.009,105.0,103.0,102.0,13.4,1505.2,326.7,-0.8,1.8,2470.946,13.28,0.017,80.0
2022-06-27T08:19:03,42.805,6.029,0.017,-0.027,-0.007,103.0,104.0,102.0,13.4,1505.2,329.3,-0.8,1.8,2470.939,13.28,0.031,147.8
2022-06-27T08:22:03,42.805,6.029,0.033,-0.016,-0.025,104.0,104.0,101.0,13.4,1505.2,331.3,-0.7,1.8,2470.962,13.28,0.036,115.9
2022-06-27T08:25:03,42.805,6.029,0.014,0.002,0.005,103.0,103.0,101.0,13.3,1505.2,321.0,-0.8,1.8,2470.95,13.29,0.014,81.9
2022-06-27T08:28:03,42.805,6.029,0.029,-0.005,-0.013,103.0,103.0,102.0,13.4,1505.2,327.4,-0.8,1.8,2470.912,13.29,0.029,99.8
2022-06-27T08:31:03,42.805,6.029,0.022,0.013,-0.017,103.0,105.0,102.0,13.3,1505.2,325.0,-0.8,1.8,2470.931,13.29,0.025,59.4
2022-06-27T08:34:03,42.805,6.029,0.022,0.003,-0.027,104.0,104.0,102.0,13.4,1505.2,330.5,-0.7,1.8,2470.908,13.29,0.022,82.2
2022-06-27T08:37:03,42.805,6.029,0.019,-0.023,-0.003,103.0,103.0,102.0,13.4,1505.2,330.9,-0.8,1.8,2470.906,13.29,0.029,140.4
2022-06-27T08:40:03,42.805,6.029,0.025,0.0,-0.016,104.0,104.0,103.0,13.4,1505.2,323.4,-0.7,1.8,2470.921,13.29,0.025,90.0
2022-06-27T08:43:03,42.805,6.029,0.038,-0.014,-0.003,102.0,104.0,102.0,13.3,1505.2,323.4,-0.8,1.8,2470.903,13.29,0.04,110.2
2022-06-27T08:46:03,42.805,6.029,0.011,-0.004,0.016,103.0,104.0,102.0,13.4,1505.2,329.2,-0.8,1.8,2470.916,13.29,0.011,110.0
2022-06-27T08:49:03,42.805,6.029,0.031,-0.008,0.0,105.0,104.0,102.0,13.4,1505.2,320.4,-0.8,1.8,2470.909,13.29,0.032,104.5
2022-06-27T08:52:03,42.805,6.029,0.017,-0.009,0.01,104.0,104.0,101.0,13.4,1505.2,326.1,-0.8,1.8,2470.89,13.29,0.019,117.9
2022-06-27T08:55:03,42.805,6.029,0.01,0.017,0.003,104.0,106.0,101.0,13.3,1505.2,320.5,-0.8,1.8,2470.952,13.29,0.019,30.5
2022-06-27T08:58:03,42.805,6.029,-0.001,0.009,-0.027,103.0,104.0,102.0,13.3,1505.2,325.5,-0.7,1.8,2470.888,13.29,0.009,353.7
2022-06-27T09:04:03,42.805,6.029,0.035,-0.005,-0.02,104.0,103.0,101.0,13.4,1505.2,326.1,-0.8,1.8,2470.925,13.28,0.035,98.1
2022-06-27T09:07:03,42.805,6.029,0.03,-0.011,-0.029,104.0,104.0,102.0,13.4,1505.2,331.7,-0.7,1.8,2470.941,13.28,0.031,110.1
2022-06-27T09:10:03,42.805,6.029,0.018,-0.01,-0.016,104.0,105.0,102.0,13.4,1505.2,327.4,-0.8,1.8,2470.921,13.28,0.02,119.1
2022-06-27T09:13:03,42.805,6.029,0.009,0.0,-0.007,105.0,105.0,101.0,13.4,1505.2,323.6,-0.7,1.8,2470.913,13.28,0.009,90.0
2022-06-27T09:16:03,42.805,6.029,0.002,0.015,0.006,104.0,104.0,101.0,13.4,1505.2,331.7,-0.8,1.8,2470.906,13.28,0.015,7.6
2022-06-27T09:19:03,42.805,6.029,0.026,0.016,0.012,104.0,103.0,102.0,13.3,1505.2,331.8,-0.8,1.8,2470.912,13.28,0.03,58.4
2022-06-27T09:22:03,42.805,6.029,0.023,0.019,-0.028,104.0,102.0,102.0,13.4,1505.2,326.0,-0.7,1.8,2470.903,13.29,0.029,50.4
2022-06-27T09:25:03,42.805,6.029,0.027,-0.008,-0.028,103.0,104.0,103.0,13.4,1505.2,328.2,-0.7,1.9,2470.946,13.29,0.028,106.5
2022-06-27T09:28:03,42.805,6.029,0.028,-0.006,-0.002,104.0,104.0,103.0,13.4,1505.2,325.4,-0.7,1.8,2470.869,13.29,0.028,102.1
2022-06-27T09:31:03,42.805,6.029,0.026,-0.017,0.005,103.0,104.0,101.0,13.3,1505.2,327.9,-0.8,1.8,2470.947,13.29,0.031,123.2
2022-06-27T09:34:03,42.805,6.029,0.014,-0.015,-0.014,106.0,104.0,102.0,13.4,1505.2,331.4,-0.8,1.8,2470.862,13.29,0.02,137.0
2022-06-27T09:37:03,42.805,6.029,0.035,0.005,-0.003,103.0,103.0,102.0,13.4,1505.2,323.2,-0.7,1.8,2470.858,13.29,0.035,81.9
2022-06-27T09:40:03,42.805,6.029,0.024,0.001,-0.002,105.0,104.0,101.0,13.4,1505.2,326.3,-0.7,1.9,2470.928,13.29,0.024,87.6
2022-06-27T09:43:03,42.805,6.029,0.002,0.001,-0.006,105.0,104.0,101.0,13.4,1505.2,329.3,-0.8,1.9,2470.896,13.29,0.002,63.4
2022-06-27T09:46:03,42.805,6.029,0.006,0.003,0.019,102.0,104.0,102.0,13.4,1505.2,331.5,-0.7,1.8,2470.902,13.29,0.006,63.4
2022-06-27T09:49:03,42.805,6.029,0.022,-0.016,-0.033,103.0,105.0,103.0,13.4,1505.2,327.9,-0.8,1.8,2470.881,13.29,0.027,126.0
2022-06-27T09:52:03,42.805,6.029,0.012,-0.017,-0.032,104.0,104.0,102.0,13.3,1505.2,322.1,-0.8,1.8,2470.926,13.29,0.02,144.8
2022-06-27T09:55:03,42.805,6.029,0.022,-0.011,-0.014,106.0,105.0,102.0,13.4,1505.2,324.9,-0.8,1.8,2470.892,13.29,0.024,116.6